Time,TemperatureF,DewpointF,PressureIn,WindDirection,WindDirectionDegrees,WindSpeedMPH,WindSpeedGustMPH,Humidity,HourlyPrecipIn,Conditions,Clouds,dailyrainin,SoftwareType,DateUTC
2013-03-08 00:01:00,29.3,28.8,29.89,WSW,247,0.0,-999.0,98,-99.99,,,0.00,Acu-Link.com,2013-03-08 05:01:00,
2013-03-08 00:16:00,29.3,28.8,29.90,NE,45,2.7,-999.0,98,-99.99,,,0.00,Acu-Link.com,2013-03-08 05:16:00,
2013-03-08 00:31:00,29.3,28.8,29.89,WSW,247,3.2,-999.0,98,-99.99,,,0.00,Acu-Link.com,2013-03-08 05:31:00,
2013-03-08 00:46:00,29.3,28.8,29.88,West,270,2.2,-999.0,98,-99.99,,,0.00,Acu-Link.com,2013-03-08 05:46:00,
2013-03-08 01:02:00,29.1,28.6,29.88,ENE,67,3.7,-999.0,98,-99.99,,,0.00,Acu-Link.com,2013-03-08 06:02:00,
2013-03-08 01:17:00,29.1,28.6,29.87,WNW,292,1.7,-999.0,98,-99.99,,,0.00,Acu-Link.com,2013-03-08 06:17:00,
2013-03-08 01:32:00,29.1,28.9,29.87,WNW,292,2.7,-999.0,99,-99.99,,,0.00,Acu-Link.com,2013-03-08 06:32:00,
2013-03-08 01:47:00,29.1,28.9,29.88,NNE,22,2.2,-999.0,99,-99.99,,,0.00,Acu-Link.com,2013-03-08 06:47:00,
2013-03-08 02:02:00,29.1,28.9,29.87,NNE,22,3.2,-999.0,99,-99.99,,,0.00,Acu-Link.com,2013-03-08 07:02:00,
2013-03-08 02:18:00,28.9,28.7,29.86,ESE,112,2.2,-999.0,99,-99.99,,,0.00,Acu-Link.com,2013-03-08 07:18:00,
2013-03-08 02:33:00,28.9,28.7,29.85,SSW,202,1.7,-999.0,99,-99.99,,,0.00,Acu-Link.com,2013-03-08 07:33:00,
2013-03-08 02:48:00,28.8,28.6,29.85,NNE,22,2.7,-999.0,99,-99.99,,,0.00,Acu-Link.com,2013-03-08 07:48:00,
2013-03-08 03:03:00,28.8,28.6,29.84,North,0,1.7,-999.0,99,-99.99,,,0.00,Acu-Link.com,2013-03-08 08:03:00,
2013-03-08 03:18:00,28.8,28.6,29.84,North,0,3.2,-999.0,99,-99.99,,,0.00,Acu-Link.com,2013-03-08 08:18:00,
2013-03-08 03:34:00,28.8,28.6,29.85,NE,45,3.7,-999.0,99,-99.99,,,0.00,Acu-Link.com,2013-03-08 08:34:00,
2013-03-08 03:49:00,28.8,28.6,29.85,South,180,1.7,-999.0,99,-99.99,,,0.00,Acu-Link.com,2013-03-08 08:49:00,
2013-03-08 04:04:00,28.8,28.6,29.85,NE,45,2.7,-999.0,99,-99.99,,,0.00,Acu-Link.com,2013-03-08 09:04:00,
2013-03-08 04:19:00,28.8,28.6,29.85,NE,45,2.2,-999.0,99,-99.99,,,0.00,Acu-Link.com,2013-03-08 09:19:00,
2013-03-08 04:34:00,28.8,28.6,29.84,NNE,22,2.7,-999.0,99,-99.99,,,0.00,Acu-Link.com,2013-03-08 09:34:00,
2013-03-08 04:49:00,28.8,28.6,29.84,NW,315,2.7,-999.0,99,-99.99,,,0.00,Acu-Link.com,2013-03-08 09:49:00,
2013-03-08 05:05:00,28.8,28.6,29.84,NE,45,3.7,-999.0,99,-99.99,,,0.00,Acu-Link.com,2013-03-08 10:05:00,
2013-03-08 05:20:00,28.8,28.6,29.85,NNE,22,3.7,-999.0,99,-99.99,,,0.00,Acu-Link.com,2013-03-08 10:20:00,
2013-03-08 05:35:00,28.8,28.6,29.85,NE,45,3.2,-999.0,99,-99.99,,,0.00,Acu-Link.com,2013-03-08 10:35:00,
2013-03-08 05:51:00,28.8,28.6,29.85,NE,45,5.8,-999.0,99,-99.99,,,0.00,Acu-Link.com,2013-03-08 10:51:00,
2013-03-08 06:06:00,28.8,28.6,29.84,SSW,202,0.0,-999.0,99,-99.99,,,0.00,Acu-Link.com,2013-03-08 11:06:00,
2013-03-08 06:21:00,28.6,28.4,29.83,NE,45,0.0,-999.0,99,-99.99,,,0.00,Acu-Link.com,2013-03-08 11:21:00,
2013-03-08 06:36:00,28.6,28.4,29.84,South,180,0.0,-999.0,99,-99.99,,,0.00,Acu-Link.com,2013-03-08 11:36:00,
2013-03-08 06:51:00,28.6,28.4,29.86,SSW,202,0.0,-999.0,99,-99.99,,,0.00,Acu-Link.com,2013-03-08 11:51:00,
2013-03-08 07:07:00,28.6,28.4,29.85,ESE,112,0.0,-999.0,99,-99.99,,,0.00,Acu-Link.com,2013-03-08 12:07:00,
2013-03-08 07:22:00,28.6,28.4,29.86,ESE,112,0.0,-999.0,99,-99.99,,,0.00,Acu-Link.com,2013-03-08 12:22:00,
2013-03-08 07:37:00,28.6,28.4,29.85,NW,315,0.0,-999.0,99,-99.99,,,0.00,Acu-Link.com,2013-03-08 12:37:00,
2013-03-08 07:52:00,28.8,28.6,29.86,NW,315,0.0,-999.0,99,-99.99,,,0.00,Acu-Link.com,2013-03-08 12:52:00,
2013-03-08 08:07:00,28.8,28.6,29.85,SSW,202,0.0,-999.0,99,-99.99,,,0.00,Acu-Link.com,2013-03-08 13:07:00,
2013-03-08 08:23:00,28.9,28.7,29.85,NNW,337,0.0,-999.0,99,-99.99,,,0.00,Acu-Link.com,2013-03-08 13:23:00,
2013-03-08 08:38:00,28.9,28.7,29.85,ESE,112,0.0,-999.0,99,-99.99,,,0.00,Acu-Link.com,2013-03-08 13:38:00,
2013-03-08 08:53:00,29.5,29.3,29.86,SSW,202,0.0,-999.0,99,-99.99,,,0.00,Acu-Link.com,2013-03-08 13:53:00,
2013-03-08 09:08:00,29.5,29.3,29.87,NE,45,0.0,-999.0,99,-99.99,,,0.00,Acu-Link.com,2013-03-08 14:08:00,
2013-03-08 09:23:00,29.7,29.2,29.87,NE,45,0.0,-999.0,98,-99.99,,,0.00,Acu-Link.com,2013-03-08 14:23:00,
2013-03-08 09:39:00,29.8,29.3,29.87,SE,135,0.0,-999.0,98,-99.99,,,0.00,Acu-Link.com,2013-03-08 14:39:00,
2013-03-08 09:54:00,29.7,29.2,29.88,West,270,0.0,-999.0,98,-99.99,,,0.00,Acu-Link.com,2013-03-08 14:54:00,
2013-03-08 10:09:00,30.2,29.2,29.88,NNE,22,0.0,-999.0,96,-99.99,,,0.00,Acu-Link.com,2013-03-08 15:09:00,
2013-03-08 10:24:00,30.6,29.9,29.88,NNE,22,0.0,-999.0,97,-99.99,,,0.00,Acu-Link.com,2013-03-08 15:24:00,
2013-03-08 10:39:00,30.2,29.2,29.89,NNW,337,0.0,-999.0,96,-99.99,,,0.00,Acu-Link.com,2013-03-08 15:39:00,
2013-03-08 10:55:00,30.6,29.9,29.89,NE,45,0.0,-999.0,97,-99.99,,,0.00,Acu-Link.com,2013-03-08 15:55:00,
2013-03-08 11:10:00,30.7,29.7,29.89,NE,45,0.0,-999.0,96,-99.99,,,0.00,Acu-Link.com,2013-03-08 16:10:00,
2013-03-08 11:25:00,30.7,29.7,29.89,East,90,0.0,-999.0,96,-99.99,,,0.00,Acu-Link.com,2013-03-08 16:25:00,
2013-03-08 11:40:00,31.1,30.3,29.89,NE,45,0.0,-999.0,97,-99.99,,,0.00,Acu-Link.com,2013-03-08 16:40:00,
2013-03-08 11:56:00,30.9,30.2,29.90,NNE,22,0.0,-999.0,97,-99.99,,,0.00,Acu-Link.com,2013-03-08 16:56:00,
2013-03-08 12:11:00,31.1,30.3,29.90,WSW,247,0.0,-999.0,97,-99.99,,,0.00,Acu-Link.com,2013-03-08 17:11:00,
2013-03-08 12:26:00,31.6,30.6,29.90,East,90,0.0,-999.0,96,-99.99,,,0.00,Acu-Link.com,2013-03-08 17:26:00,
2013-03-08 12:41:00,31.6,30.8,29.90,WNW,292,0.0,-999.0,97,-99.99,,,0.00,Acu-Link.com,2013-03-08 17:41:00,
2013-03-08 12:56:00,31.6,30.8,29.90,WSW,247,0.0,-999.0,97,-99.99,,,0.00,Acu-Link.com,2013-03-08 17:56:00,
2013-03-08 13:12:00,31.8,31.0,29.90,SW,225,0.0,-999.0,97,-99.99,,,0.00,Acu-Link.com,2013-03-08 18:12:00,
2013-03-08 13:27:00,31.6,31.1,29.90,South,180,0.0,-999.0,98,-99.99,,,0.00,Acu-Link.com,2013-03-08 18:27:00,
2013-03-08 13:42:00,32.0,31.2,29.91,WNW,292,0.0,-999.0,97,-99.99,,,0.00,Acu-Link.com,2013-03-08 18:42:00,
2013-03-08 13:57:00,32.0,31.2,29.92,WNW,292,0.0,-999.0,97,-99.99,,,0.00,Acu-Link.com,2013-03-08 18:57:00,
2013-03-08 14:12:00,32.7,31.7,29.91,SW,225,0.0,-999.0,96,-99.99,,,0.00,Acu-Link.com,2013-03-08 19:12:00,
2013-03-08 14:27:00,33.1,32.1,29.93,ENE,67,0.0,-999.0,96,-99.99,,,0.00,Acu-Link.com,2013-03-08 19:27:00,
2013-03-08 14:43:00,33.4,32.1,29.93,NE,45,0.0,-999.0,95,-99.99,,,0.00,Acu-Link.com,2013-03-08 19:43:00,
2013-03-08 14:58:00,33.4,31.9,29.93,ESE,112,0.0,-999.0,94,-99.99,,,0.00,Acu-Link.com,2013-03-08 19:58:00,
2013-03-08 15:13:00,33.6,31.5,29.92,SSW,202,0.0,-999.0,92,-99.99,,,0.00,Acu-Link.com,2013-03-08 20:13:00,
2013-03-08 15:28:00,33.6,31.8,29.93,SSW,202,0.0,-999.0,93,-99.99,,,0.00,Acu-Link.com,2013-03-08 20:28:00,
2013-03-08 15:43:00,33.3,32.0,29.94,ENE,67,0.0,-999.0,95,-99.99,,,0.00,Acu-Link.com,2013-03-08 20:43:00,
2013-03-08 15:58:00,32.9,32.4,29.95,East,90,0.0,-999.0,98,-99.99,,,0.00,Acu-Link.com,2013-03-08 20:58:00,
2013-03-08 16:14:00,32.9,32.7,29.96,NE,45,0.0,-999.0,99,-99.99,,,0.00,Acu-Link.com,2013-03-08 21:14:00,
2013-03-08 16:29:00,33.6,31.8,29.97,SSE,157,0.0,-999.0,93,-99.99,,,0.00,Acu-Link.com,2013-03-08 21:29:00,
2013-03-08 16:44:00,33.8,32.0,29.98,NE,45,0.0,-999.0,93,-99.99,,,0.00,Acu-Link.com,2013-03-08 21:44:00,
2013-03-08 17:00:00,33.8,31.7,29.98,SW,225,0.0,-999.0,92,-99.99,,,0.00,Acu-Link.com,2013-03-08 22:00:00,
2013-03-08 17:15:00,34.9,30.6,29.98,NNE,22,0.0,-999.0,84,-99.99,,,0.00,Acu-Link.com,2013-03-08 22:15:00,
2013-03-08 17:30:00,34.5,31.0,29.98,WNW,292,0.0,-999.0,87,-99.99,,,0.00,Acu-Link.com,2013-03-08 22:30:00,
2013-03-08 17:46:00,35.6,29.1,29.99,NE,45,0.0,-999.0,77,-99.99,,,0.00,Acu-Link.com,2013-03-08 22:46:00,
2013-03-08 18:01:00,35.8,29.0,29.98,West,270,0.0,-999.0,76,-99.99,,,0.00,Acu-Link.com,2013-03-08 23:01:00,
2013-03-08 18:16:00,34.9,30.0,30.00,SSW,202,0.0,-999.0,82,-99.99,,,0.00,Acu-Link.com,2013-03-08 23:16:00,
2013-03-08 18:31:00,34.2,29.6,29.99,NE,45,0.0,-999.0,83,-99.99,,,0.00,Acu-Link.com,2013-03-08 23:31:00,
2013-03-08 18:46:00,34.0,30.0,30.00,SW,225,0.0,-999.0,85,-99.99,,,0.00,Acu-Link.com,2013-03-08 23:46:00,
2013-03-08 19:02:00,33.8,30.6,29.99,SW,225,0.0,-999.0,88,-99.99,,,0.00,Acu-Link.com,2013-03-09 00:02:00,
2013-03-08 19:17:00,34.2,30.2,30.00,NNE,22,0.0,-999.0,85,-99.99,,,0.00,Acu-Link.com,2013-03-09 00:17:00,
2013-03-08 19:32:00,34.9,30.6,30.01,East,90,0.0,-999.0,84,-99.99,,,0.00,Acu-Link.com,2013-03-09 00:32:00,
2013-03-08 19:47:00,36.3,29.5,30.01,NE,45,0.0,-999.0,76,-99.99,,,0.00,Acu-Link.com,2013-03-09 00:47:00,
2013-03-08 20:03:00,36.1,29.0,30.01,East,90,0.0,-999.0,75,-99.99,,,0.00,Acu-Link.com,2013-03-09 01:03:00,
2013-03-08 20:18:00,35.4,28.0,30.03,SW,225,0.0,-999.0,74,-99.99,,,0.00,Acu-Link.com,2013-03-09 01:18:00,
2013-03-08 20:33:00,35.2,27.8,30.01,NE,45,0.0,-999.0,74,-99.99,,,0.00,Acu-Link.com,2013-03-09 01:33:00,
2013-03-08 20:48:00,34.3,27.9,30.03,North,0,0.0,-999.0,77,-99.99,,,0.00,Acu-Link.com,2013-03-09 01:48:00,
2013-03-08 21:04:00,33.4,27.9,30.03,East,90,0.0,-999.0,80,-99.99,,,0.00,Acu-Link.com,2013-03-09 02:04:00,
2013-03-08 21:19:00,33.8,26.7,30.02,South,180,0.0,-999.0,75,-99.99,,,0.00,Acu-Link.com,2013-03-09 02:19:00,
2013-03-08 21:34:00,33.3,26.9,30.04,NE,45,0.0,-999.0,77,-99.99,,,0.00,Acu-Link.com,2013-03-09 02:34:00,
2013-03-08 21:49:00,34.0,25.9,30.04,NE,45,0.0,-999.0,72,-99.99,,,0.00,Acu-Link.com,2013-03-09 02:49:00,
2013-03-08 22:04:00,34.0,25.9,30.05,WNW,292,0.0,-999.0,72,-99.99,,,0.00,Acu-Link.com,2013-03-09 03:04:00,
2013-03-08 22:20:00,34.0,25.6,30.04,SSE,157,0.0,-999.0,71,-99.99,,,0.00,Acu-Link.com,2013-03-09 03:20:00,
2013-03-08 22:35:00,33.6,25.6,30.05,SW,225,0.0,-999.0,72,-99.99,,,0.00,Acu-Link.com,2013-03-09 03:35:00,
2013-03-08 22:50:00,32.9,24.9,30.05,NE,45,0.0,-999.0,72,-99.99,,,0.00,Acu-Link.com,2013-03-09 03:50:00,
2013-03-08 23:05:00,32.5,24.8,30.04,WNW,292,0.0,-999.0,73,-99.99,,,0.00,Acu-Link.com,2013-03-09 04:05:00,
2013-03-08 23:21:00,32.4,24.4,30.04,NE,45,0.0,-999.0,72,-99.99,,,0.00,Acu-Link.com,2013-03-09 04:21:00,
2013-03-08 23:36:00,32.7,24.4,30.05,WSW,247,0.0,-999.0,71,-99.99,,,0.00,Acu-Link.com,2013-03-09 04:36:00,
2013-03-08 23:51:00,32.5,24.5,30.05,East,90,0.0,-999.0,72,-99.99,,,0.00,Acu-Link.com,2013-03-09 04:51:00,